Change the Weather History Date:

Monday, December 3, 2012

  Actual Average Record
Temperature  
Mean Temperature 80 °F -  
Max Temperature 91 °F 88 °F 95 °F (1999)
Min Temperature 68 °F 68 °F 66 °F (2001)
Cooling Degree Days 14    
Growing Degree Days 30 (Base 50)    
Moisture  
Dew Point 65 °F    
Average Humidity 57    
Maximum Humidity 86    
Minimum Humidity 28    
Precipitation  
Precipitation 0.00 in - - ()
Sea Level Pressure  
Sea Level Pressure 29.86 in    
Wind  
Wind Speed 3 mph ()    
Max Wind Speed 12 mph    
Max Gust Speed -    
Visibility 1.4 miles    
Events      
Averages and records for this station are not official NWS values.
T = Trace of Precipitation, MM = Missing Value Source: Averaged Metar Reports

Daily Weather History Graph

Daily Weather History Graph

Search for Another Location

Airport or City:

Trip Planner

Search our weather history database for the weather conditions in past years. The results will help you decide how hot, cold, wet, or windy it might be!

Date:

Astronomy

Dec. 03, 2012 Rise Set
Actual Time 6:56 AM IST 5:59 PM IST
Civil Twilight 6:33 AM IST 6:23 PM IST
Nautical Twilight 6:06 AM IST 6:50 PM IST
Astronomical Twilight 5:39 AM IST 7:17 PM IST
Moon 10:01 PM IST (12/3) 10:20 AM IST (12/3)
Length of Visible Light 11h 50m
Length of Day
11h 03m
Waning Gibbous, 82% of the Moon is Illuminated
Dec 3
Waning Gibbous
Dec 6
Last Quarter
Dec 13
New
Dec 20
First Quarter
Dec 28
Full

Hourly Weather History & Observations

Time (IST) Temp. Heat Index Dew Point Humidity Pressure Visibility Wind Dir Wind Speed Gust Speed Precip Events Conditions
12:10 AM 77.0 °F - 62.6 °F 61% 29.89 in 1.0 mi SSE 3.5 mph - N/A   Smoke
12:40 AM 77.0 °F - 66.2 °F 69% 29.86 in 1.0 mi Calm Calm - N/A   Smoke
1:10 AM 77.0 °F - 64.4 °F 65% 29.86 in 1.4 mi Calm Calm - N/A   Smoke
1:40 AM 75.2 °F - 64.4 °F 69% 29.86 in 1.4 mi Calm Calm - N/A   Smoke
2:10 AM 78.8 °F - 64.4 °F 61% 29.86 in 1.4 mi Calm Calm - N/A   Smoke
2:30 AM 70 °F - 67 °F 86% 29.84 in 1 mi Calm Calm - -   Haze
2:40 AM 77.0 °F - 64.4 °F 65% 29.83 in 1.6 mi Calm Calm - N/A   Smoke
3:10 AM 77.0 °F - 64.4 °F 65% 29.83 in 1.6 mi Calm Calm - N/A   Smoke
3:40 AM 77.0 °F - 64.4 °F 65% 29.83 in 1.7 mi NE 3.5 mph - N/A   Smoke
4:40 AM 77.0 °F - 62.6 °F 61% 29.83 in 1.9 mi NNE 4.6 mph - N/A   Smoke
5:10 AM 77.0 °F - 64.4 °F 65% 29.83 in 1.4 mi Calm Calm - N/A   Smoke
5:30 AM 69 °F - 66 °F 86% 29.85 in 1 mi Calm Calm - -   Haze
5:40 AM 75.2 °F - 66.2 °F 73% 29.86 in 1.1 mi SE 3.5 mph - N/A   Smoke
6:40 AM 73.4 °F - 66.2 °F 78% 29.89 in 0.9 mi Calm Calm - N/A   Haze
7:40 AM 75.2 °F - 66.2 °F 73% 29.89 in 1.0 mi Calm Calm - N/A   Haze
8:30 AM 75 °F - 68 °F 72% 29.94 in 1 mi SW 2.3 mph - -   Smoke
9:40 AM 82.4 °F 84.6 °F 66.2 °F 58% 29.95 in 0.9 mi ESE 6.9 mph - N/A   Smoke
10:10 AM 84.2 °F 85.0 °F 62.6 °F 48% 29.95 in 1.4 mi SE 6.9 mph - N/A   Smoke
10:40 AM 86.0 °F 86.1 °F 60.8 °F 43% 29.95 in 1.7 mi SE 9.2 mph - N/A   Smoke
11:30 AM 89 °F - 61 °F 28% 29.94 in 1 mi ESE 4.6 mph - -   Smoke
11:40 AM 87.8 °F 88.5 °F 62.6 °F 43% 29.92 in 1.9 mi SE 5.8 mph - N/A   Smoke
12:10 PM 89.6 °F 90.1 °F 62.6 °F 40% 29.92 in 1.9 mi SE 5.8 mph - N/A   Smoke
12:40 PM 89.6 °F 90.1 °F 62.6 °F 40% 29.89 in 2.2 mi South 3.5 mph - N/A   Smoke
1:10 PM 91.4 °F 90.7 °F 59.0 °F 34% 29.86 in 2.2 mi Calm Calm - N/A   Smoke
2:30 PM 89 °F - 61 °F 28% 29.84 in 1 mi West 5.8 mph - -   Smoke
2:40 PM 86.0 °F 87.3 °F 64.4 °F 48% 29.83 in 1.7 mi West 11.5 mph - N/A   Smoke
3:10 PM 86.0 °F 86.6 °F 62.6 °F 45% 29.83 in 1.6 mi West 10.4 mph - N/A   Smoke
3:40 PM 86.0 °F 88.2 °F 66.2 °F 51% 29.80 in 1.6 mi West 9.2 mph - N/A   Smoke
4:10 PM 86.0 °F 86.6 °F 62.6 °F 45% 29.80 in 1.6 mi West 9.2 mph - N/A   Smoke
4:40 PM 86.0 °F 87.3 °F 64.4 °F 48% 29.80 in 1.6 mi WNW 8.1 mph - N/A   Smoke
5:10 PM 84.2 °F 86.6 °F 66.2 °F 55% 29.83 in 1.6 mi WNW 9.2 mph - N/A   Smoke
5:30 PM 85 °F - 66 °F 43% 29.82 in 1 mi West 3.5 mph - -   Smoke
5:40 PM 84.2 °F 85.6 °F 64.4 °F 51% 29.83 in 1.6 mi NW 4.6 mph - N/A   Smoke
6:10 PM 82.4 °F 85.4 °F 68.0 °F 62% 29.83 in 1.4 mi NW 4.6 mph - N/A   Smoke
6:40 PM 82.4 °F 84.6 °F 66.2 °F 58% 29.83 in 1.4 mi NW 5.8 mph - N/A   Smoke
7:10 PM 82.4 °F 84.6 °F 66.2 °F 58% 29.83 in 1.4 mi NW 4.6 mph - N/A   Smoke
7:40 PM 82.4 °F 84.6 °F 66.2 °F 58% 29.86 in 1.3 mi NNW 8.1 mph - N/A   Smoke
8:10 PM 82.4 °F 84.6 °F 66.2 °F 58% 29.86 in 1.3 mi NNW 9.2 mph - N/A   Smoke
8:30 PM 81 °F - 67 °F 53% 29.86 in 1 mi NNW 6.9 mph - -   Smoke
8:40 PM 82.4 °F 84.6 °F 66.2 °F 58% 29.86 in 1.3 mi NNW 9.2 mph - N/A   Smoke
9:10 PM 82.4 °F 84.6 °F 66.2 °F 58% 29.89 in 1.4 mi North 5.8 mph - N/A   Smoke
9:40 PM 80.6 °F 82.7 °F 66.2 °F 61% 29.89 in 1.4 mi North 5.8 mph - N/A   Smoke
10:10 PM 80.6 °F 82.3 °F 64.4 °F 58% 29.89 in 1.4 mi North 5.8 mph - N/A   Smoke
10:40 PM 80.6 °F 82.3 °F 64.4 °F 58% 29.89 in 1.4 mi NNE 8.1 mph - N/A   Smoke
11:10 PM 78.8 °F - 62.6 °F 57% 29.89 in 1.4 mi East 3.5 mph - N/A   Smoke
11:30 PM 75 °F - 64 °F 62% 29.87 in 1 mi Calm Calm - -   Smoke
11:40 PM 77.0 °F - 62.6 °F 61% 29.86 in 1.4 mi Calm Calm - N/A   Smoke